Teterboro, NJ

1:09 AM EDT on June 27, 2017 (GMT -0400)
Teterboro

Weather History for KTEB - January, 2012

Change the Weather History Date:

Wednesday, January 18, 2012

  Actual Average Record
Temperature  
Mean Temperature 38 °F -  
Max Temperature 53 °F 34 °F 59 °F (2006)
Min Temperature 23 °F 20 °F 3 °F (2000)
Degree Days  
Heating Degree Days 26    
Moisture  
Dew Point 18 °F    
Average Humidity 49    
Maximum Humidity 90    
Minimum Humidity 37    
Precipitation  
Precipitation 0.00 in - - ()
Sea Level Pressure  
Sea Level Pressure 29.93 in    
Wind  
Wind Speed 14 mph (NW)    
Max Wind Speed 23 mph    
Max Gust Speed 37 mph    
Visibility 10 miles    
Events      
Averages and records for this station are not official NWS values.
T = Trace of Precipitation, MM = Missing Value Source: NWS Daily Summary

Daily Weather History Graph

Daily Weather History Graph

Search for Another Location

Airport or City:

Trip Planner

Search our weather history database for the weather conditions in past years. The results will help you decide how hot, cold, wet, or windy it might be!

Date:

Astronomy

Jan. 18, 2012 Rise Set
Actual Time 7:17 AM EST 4:56 PM EST
Civil Twilight 6:47 AM EST 5:26 PM EST
Nautical Twilight 6:13 AM EST 5:59 PM EST
Astronomical Twilight 5:40 AM EST 6:32 PM EST
Moon 2:44 AM EST (1/18) 12:32 PM EST (1/18)
Length of Visible Light 10h 38m
Length of Day
9h 38m
Waning Crescent, 25% of the Moon is Illuminated
Jan 18
Waning Crescent
Jan 23
New
Jan 30
First Quarter
Feb 7
Full
Feb 14
Last Quarter

Hourly Weather History & Observations

Time (EST) Temp. Windchill Dew Point Humidity Pressure Visibility Wind Dir Wind Speed Gust Speed Precip Events Conditions
12:51 AM 46.9 °F - 44.1 °F 90% 29.55 in 10.0 mi SW 5.8 mph - N/A   Clear
1:51 AM 53.1 °F - 45.0 °F 74% 29.57 in 10.0 mi WSW 15.0 mph 20.7 mph N/A   Overcast
2:51 AM 48.9 °F - 34.0 °F 56% 29.63 in 10.0 mi West 17.3 mph 28.8 mph N/A   Mostly Cloudy
3:51 AM 46.0 °F 38.3 °F 28.9 °F 51% 29.68 in 10.0 mi WNW 20.7 mph 34.5 mph N/A   Mostly Cloudy
4:51 AM 44.1 °F 35.7 °F 25.0 °F 47% 29.71 in 10.0 mi NW 20.7 mph 28.8 mph N/A   Clear
5:51 AM 41.0 °F 34.7 °F 24.1 °F 51% 29.75 in 10.0 mi NNW 10.4 mph 18.4 mph N/A   Clear
6:51 AM 39.0 °F 29.9 °F 19.9 °F 46% 29.80 in 10.0 mi WNW 17.3 mph 26.5 mph N/A   Clear
7:51 AM 39.0 °F 31.0 °F 18.0 °F 43% 29.84 in 10.0 mi WNW 13.8 mph 21.9 mph N/A   Clear
8:51 AM 39.0 °F 31.4 °F 19.0 °F 45% 29.88 in 10.0 mi NW 12.7 mph 23.0 mph N/A   Clear
9:51 AM 39.0 °F 29.0 °F 17.1 °F 41% 29.91 in 10.0 mi WNW 20.7 mph 35.7 mph N/A   Partly Cloudy
10:51 AM 37.9 °F 27.1 °F 17.1 °F 43% 29.94 in 10.0 mi NW 23.0 mph 34.5 mph N/A   Scattered Clouds
11:51 AM 37.9 °F 27.1 °F 16.0 °F 41% 29.94 in 10.0 mi NW 23.0 mph 36.8 mph N/A   Clear
12:51 PM 37.0 °F 27.4 °F 15.1 °F 41% 29.95 in 10.0 mi WNW 17.3 mph 26.5 mph N/A   Clear
1:51 PM 37.9 °F 28.9 °F 15.1 °F 39% 29.97 in 10.0 mi NW 16.1 mph 25.3 mph N/A   Clear
2:51 PM 36.0 °F 24.7 °F 12.0 °F 37% 29.99 in 10.0 mi NW 21.9 mph 27.6 mph N/A   Clear
3:51 PM 34.0 °F 23.4 °F 12.0 °F 40% 30.02 in 10.0 mi NW 17.3 mph 27.6 mph N/A   Clear
4:51 PM 30.9 °F 19.8 °F 10.9 °F 43% 30.06 in 10.0 mi NNW 16.1 mph 31.1 mph N/A   Clear
5:51 PM 30.0 °F 21.7 °F 10.0 °F 43% 30.10 in 10.0 mi NNW 9.2 mph - N/A   Clear
6:51 PM 28.9 °F 19.2 °F 9.0 °F 43% 30.14 in 10.0 mi North 11.5 mph 19.6 mph N/A   Clear
7:51 PM 27.0 °F 18.0 °F 10.0 °F 49% 30.15 in 10.0 mi NNW 9.2 mph - N/A   Clear
8:51 PM 26.1 °F 17.6 °F 9.0 °F 49% 30.16 in 10.0 mi NNW 8.1 mph - N/A   Clear
9:51 PM 25.0 °F 14.8 °F 8.1 °F 49% 30.15 in 10.0 mi NNW 10.4 mph - N/A   Clear
10:51 PM 24.1 °F 16.0 °F 8.1 °F 51% 30.17 in 10.0 mi NNW 6.9 mph - N/A   Clear
11:51 PM 23.0 °F 18.4 °F 9.0 °F 55% 30.19 in 10.0 mi NNW 3.5 mph - N/A   Clear